GW3006 Weather Reports


time (UTC)temp
C
wind
direction
speed
KPH
gust
KPH
rain 1hr
cm
rain 24hr
cm
rain mn
cm
humidity
%
barometer
mb
20260510091804 16 349 8.0 14.5 0.00 0.00 0.00 52 1011.9
20260510090903 15 355 8.0 17.7 0.00 0.00 0.00 53 1011.9
20260510090003 16 5 8.0 16.1 0.00 0.00 0.00 54 1012.0
20260510085403 16 4 6.4 12.9 0.00 0.00 0.00 55 1011.9
20260510084503 15 13 6.4 17.7 0.00 0.00 0.00 58 1012.0
20260510083625 15 14 6.4 14.5 0.00 0.00 0.00 60 1011.9
20260510082703 15 2 6.4 17.7 0.00 0.00 0.00 61 1012.0
20260510081803 15 22 6.4 17.7 0.00 0.00 0.00 64 1011.9
20260510080904 14 19 6.4 17.7 0.00 0.00 0.00 64 1012.2
20260510080003 15 2 6.4 14.5 0.00 0.00 0.00 63 1012.2
20260510075403 15 7 6.4 14.5 0.00 0.00 0.00 63 1012.3
20260510074503 15 26 6.4 16.1 0.00 0.00 0.00 64 1012.5
20260510073603 15 13 6.4 14.5 0.00 0.00 0.00 65 1012.3
20260510072724 15 1 6.4 14.5 0.00 0.00 0.00 66 1012.5
20260510071803 14 7 6.4 17.7 0.00 0.00 0.00 68 1012.4
20260510070903 14 11 4.8 14.5 0.00 0.00 0.00 68 1012.6
20260510070003 13 9 6.4 14.5 0.00 0.00 0.00 71 1012.4
20260510065425 13 3 4.8 14.5 0.00 0.00 0.00 70 1012.5
20260510064503 13 7 6.4 14.5 0.00 0.00 0.00 73 1012.5
20260510063603 13 23 4.8 14.5 0.00 0.00 0.00 74 1012.4
20260510062703 13 2 4.8 11.3 0.00 0.00 0.00 77 1012.7
20260510061803 12 29 4.8 12.9 0.00 0.00 0.00 78 1012.3
20260510060903 12 17 4.8 14.5 0.00 0.00 0.00 81 1012.4
20260510060024 12 14 4.8 9.7 0.00 0.00 0.00 84 1012.5
20260510055403 11 9 3.2 11.3 0.00 0.00 0.00 85 1012.3
20260510054503 11 17 3.2 11.3 0.00 0.00 0.00 86 1012.4
20260510053603 11 7 3.2 9.7 0.00 0.00 0.00 87 1012.6
20260510052704 11 8 4.8 9.7 0.00 0.00 0.00 88 1012.4
20260510051805 10 8 4.8 11.3 0.00 0.00 0.00 89 1012.4
20260510050903 10 7 3.2 9.7 0.00 0.00 0.00 89 1012.4
20260510050003 10 1 3.2 6.4 0.00 0.00 0.00 89 1012.5
20260510045403 10 7 3.2 6.4 0.00 0.00 0.00 89 1012.5
20260510044503 10 8 3.2 4.8 0.00 0.00 0.00 89 1012.4
20260510043624 10 4 1.6 6.4 0.00 0.00 0.00 89 1012.5
20260510042703 10 3 1.6 4.8 0.00 0.00 0.00 89 1012.6
20260510041805 10 8 3.2 4.8 0.00 0.00 0.00 89 1012.3
20260510040903 10 10 3.2 4.8 0.00 0.00 0.00 89 1012.4
20260510040024 10 19 1.6 3.2 0.00 0.00 0.00 89 1012.2
20260510035403 10 19 1.6 6.4 0.00 0.00 0.00 89 1012.1
20260510034503 10 3 3.2 6.4 0.00 0.00 0.00 89 1012.2
20260510033603 10 5 3.2 4.8 0.00 0.00 0.00 89 1012.3
20260510032703 10 8 3.2 6.4 0.00 0.00 0.00 89 1012.3
20260510031804 10 7 3.2 6.4 0.00 0.00 0.00 89 1012.2
20260510030903 10 10 3.2 4.8 0.00 0.00 0.00 88 1012.6
20260510030003 10 4 3.2 6.4 0.00 0.00 0.00 88 1012.7
20260510025405 10 9 1.6 6.4 0.00 0.00 0.00 88 1012.4
20260510024504 10 16 1.6 3.2 0.00 0.00 0.00 88 1012.6
20260510023603 10 19 1.6 3.2 0.00 0.00 0.00 88 1012.7
20260510022703 10 11 1.6 4.8 0.00 0.00 0.00 88 1012.7
20260510021803 10 6 1.6 4.8 0.00 0.00 0.00 88 1012.5
20260510020924 11 4 3.2 6.4 0.00 0.00 0.00 88 1012.8
20260510020003 10 6 3.2 6.4 0.00 0.00 0.00 88 1012.5
20260510015403 10 4 1.6 4.8 0.00 0.00 0.00 88 1012.9
20260510014504 10 7 1.6 4.8 0.00 0.00 0.00 88 1012.6
20260510013603 10 10 1.6 4.8 0.00 0.00 0.00 88 1012.9
20260510012703 10 9 1.6 6.4 0.00 0.00 0.00 87 1013.0
20260510011824 10 18 1.6 4.8 0.00 0.00 0.00 87 1012.9
20260510010903 11 12 3.2 4.8 0.00 0.00 0.00 86 1012.8
20260510010003 11 3 3.2 4.8 0.00 0.00 0.00 86 1012.8
20260510005403 11 360 3.2 6.4 0.00 0.00 0.00 85 1013.0
20260510004503 11 6 1.6 3.2 0.00 0.00 0.00 85 1012.8
20260510003603 11 3 1.6 3.2 0.00 0.00 0.00 84 1012.9
20260510002703 11 17 1.6 4.8 0.00 0.00 0.00 84 1013.1
20260510001825 11 6 1.6 4.8 0.00 0.00 0.00 83 1013.2
20260510000903 11 10 1.6 4.8 0.00 0.00 0.00 83 1012.9
20260510000003 11 10 1.6 4.8 0.00 0.00 0.00 83 1013.5
20260509235403 11 10 3.2 6.4 0.00 0.00 0.00 83 1013.2
20260509234503 11 11 3.2 4.8 0.00 0.00 0.00 82 1013.5
20260509233624 11 9 3.2 4.8 0.00 0.00 0.00 82 1013.4
20260509232703 11 17 1.6 3.2 0.00 0.00 0.00 82 1013.6
20260509231803 11 12 1.6 4.8 0.00 0.00 0.00 81 1013.7
20260509230903 11 28 1.6 4.8 0.00 0.00 0.00 80 1013.5
20260509230024 11 19 1.6 4.8 0.00 0.00 0.00 80 1013.7
20260509225404 11 13 3.2 4.8 0.00 0.00 0.00 80 1013.6
20260509224503 11 9 3.2 6.4 0.00 0.00 0.00 79 1013.7
20260509223603 12 3 3.2 6.4 0.00 0.00 0.00 79 1013.8
20260509222703 12 5 3.2 4.8 0.00 0.00 0.00 78 1013.5
20260509221805 12 3 3.2 9.7 0.00 0.00 0.00 78 1013.6
20260509220903 12 9 3.2 9.7 0.00 0.00 0.00 77 1013.6
20260509220003 12 13 3.2 9.7 0.00 0.00 0.00 77 1013.4
20260509215403 12 8 3.2 9.7 0.00 0.00 0.00 76 1013.5
20260509214503 12 9 3.2 6.4 0.00 0.00 0.00 75 1013.8
20260509213604 12 10 1.6 6.4 0.00 0.00 0.00 74 1013.9
20260509212724 12 8 1.6 6.4 0.00 0.00 0.00 74 1013.7
20260509211824 12 2 1.6 6.4 0.00 0.00 0.00 75 1013.6
20260509210903 12 12 0.0 3.2 0.00 0.00 0.00 74 1013.6
20260509210003 12 16 0.0 3.2 0.00 0.00 0.00 73 1013.7
20260509205403 12 1 0.0 3.2 0.00 0.00 0.00 72 1013.5
20260509204524 13 14 1.6 4.8 0.00 0.00 0.00 70 1013.5
20260509203603 13 16 0.0 4.8 0.00 0.00 0.00 70 1013.4
20260509202704 13 21 0.0 4.8 0.00 0.00 0.00 68 1013.5
20260509201824 13 2 0.0 3.2 0.00 0.00 0.00 68 1013.5
20260509200903 13 13 0.0 6.4 0.00 0.00 0.00 67 1013.4
20260509200003 13 9 1.6 4.8 0.00 0.00 0.00 66 1013.2
20260509195403 14 14 1.6 6.4 0.00 0.00 0.00 65 1013.4
20260509194503 14 4 1.6 6.4 0.00 0.00 0.00 65 1013.0
20260509193603 14 2 1.6 4.8 0.00 0.00 0.00 64 1013.0
20260509192703 15 9 1.6 9.7 0.00 0.00 0.00 64 1013.1
20260509191804 15 9 1.6 9.7 0.00 0.00 0.00 64 1013.0
20260509190924 15 10 1.6 4.8 0.00 0.00 0.00 63 1012.8
20260509190003 15 6 1.6 9.7 0.00 0.00 0.00 63 1013.0
20260509185403 15 1 1.6 9.7 0.00 0.00 0.00 62 1013.0
20260509184525 16 14 1.6 6.4 0.00 0.00 0.00 62 1013.1
20260509183604 16 5 3.2 9.7 0.00 0.00 0.00 61 1013.1
20260509182703 16 14 3.2 14.5 0.00 0.00 0.00 60 1012.7
20260509181804 16 358 3.2 12.9 0.00 0.00 0.00 59 1012.7
20260509180903 17 7 1.6 12.9 0.00 0.00 0.00 59 1012.9
20260509180004 17 7 3.2 12.9 0.00 0.00 0.00 59 1012.8
20260509175403 17 358 3.2 14.5 0.00 0.00 0.00 58 1012.9
20260509174503 17 9 3.2 12.9 0.00 0.00 0.00 58 1012.9
20260509173625 17 359 4.8 17.7 0.00 0.00 0.00 58 1012.8
20260509172704 18 6 3.2 17.7 0.00 0.00 0.00 57 1012.9
20260509171803 18 12 4.8 16.1 0.00 0.00 0.00 57 1012.6
20260509170903 18 360 8.0 17.7 0.00 0.00 0.00 57 1012.4
20260509170003 18 360 6.4 12.9 0.00 0.00 0.00 56 1012.5
20260509165403 18 4 6.4 16.1 0.00 0.00 0.00 55 1012.8
20260509164503 19 3 6.4 14.5 0.00 0.00 0.00 54 1012.7
20260509163604 19 358 8.0 19.3 0.00 0.00 0.00 56 1012.5
20260509162703 20 359 6.4 14.5 0.00 0.00 0.00 54 1012.6
20260509161806 20 5 8.0 19.3 0.00 0.00 0.00 55 1012.7
20260509160903 20 357 8.0 17.7 0.00 0.00 0.00 54 1012.8
20260509160003 20 360 6.4 14.5 0.00 0.00 0.00 53 1012.4
20260509155403 20 1 6.4 14.5 0.00 0.00 0.00 54 1012.7
20260509154524 20 8 4.8 12.9 0.00 0.00 0.00 53 1012.6
20260509153603 20 3 3.2 12.9 0.00 0.00 0.00 51 1012.6
20260509152724 21 9 3.2 9.7 0.00 0.00 0.00 47 1012.7
20260509151803 21 3 3.2 12.9 0.00 0.00 0.00 47 1012.3
20260509150903 21 16 0.0 11.3 0.00 0.00 0.00 47 1012.4
20260509150003 21 354 1.6 4.8 0.00 0.00 0.00 47 1012.6
20260509145404 20 356 3.2 12.9 0.00 0.00 0.00 49 1012.6
20260509144503 21 11 3.2 12.9 0.00 0.00 0.00 48 1012.5
20260509143603 22 358 1.6 11.3 0.00 0.00 0.00 46 1012.8
20260509142703 22 19 1.6 6.4 0.00 0.00 0.00 45 1012.8
20260509141803 20 12 1.6 6.4 0.00 0.00 0.00 49 1012.9
20260509140924 20 16 3.2 9.7 0.00 0.00 0.00 49 1012.8
20260509140003 21 359 3.2 11.3 0.00 0.00 0.00 47 1012.8
20260509135424 22 358 1.6 11.3 0.00 0.00 0.00 46 1012.9
20260509134503 21 336 0.0 3.2 0.00 0.00 0.00 47 1012.9
20260509133603 21 15 3.2 9.7 0.00 0.00 0.00 48 1013.2
20260509132724 22 3 1.6 6.4 0.00 0.00 0.00 45 1013.1
20260509131803 21 3 3.2 11.3 0.00 0.00 0.00 47 1013.0
20260509130903 22 344 1.6 6.4 0.00 0.00 0.00 46 1013.0
20260509130003 21 354 1.6 6.4 0.00 0.00 0.00 49 1013.5
20260509125403 20 6 3.2 9.7 0.00 0.00 0.00 50 1013.8
20260509124503 21 349 1.6 6.4 0.00 0.00 0.00 49 1013.5
20260509123603 21 1 1.6 4.8 0.00 0.00 0.00 47 1013.7
20260509122724 20 348 3.2 12.9 0.00 0.00 0.00 49 1013.7
20260509121803 21 11 1.6 9.7 0.00 0.00 0.00 47 1013.9
20260509120904 21 6 1.6 9.7 0.00 0.00 0.00 47 1013.9
20260509120003 21 10 1.6 6.4 0.00 0.00 0.00 46 1013.9
20260509115405 22 21 1.6 6.4 0.00 0.00 0.00 47 1014.1
20260509114503 22 206 1.6 6.4 0.00 0.00 0.00 44 1014.1
20260509113603 22 317 1.6 9.7 0.00 0.00 0.00 45 1014.2
20260509112703 20 351 0.0 3.2 0.00 0.00 0.00 48 1014.4
20260509111803 21 4 1.6 11.3 0.00 0.00 0.00 44 1014.3
20260509110903 21 349 1.6 4.8 0.00 0.00 0.00 47 1014.4
20260509110004 21 356 1.6 11.3 0.00 0.00 0.00 47 1014.4
20260509105404 21 350 1.6 11.3 0.00 0.00 0.00 47 1014.6
20260509104525 21 328 0.0 6.4 0.00 0.00 0.00 46 1014.8
20260509103603 21 7 1.6 9.7 0.00 0.00 0.00 47 1014.5
20260509102724 21 18 1.6 6.4 0.00 0.00 0.00 47 1014.7
20260509101803 21 332 1.6 6.4 0.00 0.00 0.00 47 1014.7
20260509100903 21 84 1.6 11.3 0.00 0.00 0.00 46 1014.9
20260509100004 20 335 1.6 4.8 0.00 0.00 0.00 47 1014.8
20260509095424 20 326 1.6 4.8 0.00 0.00 0.00 48 1014.8
20260509094504 20 346 1.6 4.8 0.00 0.00 0.00 48 1014.9
20260509093624 20 344 1.6 9.7 0.00 0.00 0.00 49 1014.8
20260509092703 20 350 0.0 4.8 0.00 0.00 0.00 50 1015.2